| time (UTC) | temp C | wind direction | speed KPH | gust KPH | rain 1hr cm | rain 24hr cm | rain mn cm | humidity % | barometer mb |
| 20260510193033 | 19 | 117 | 0.0 | 0.0 | 0.05 | 0.30 | 0.05 | 80 | 1010.2 |
| 20260510191535 | 18 | 118 | 0.0 | 3.2 | 0.05 | 0.30 | 0.05 | 83 | 1010.4 |
| 20260510190037 | 19 | 80 | 0.0 | 4.8 | 0.03 | 0.28 | 0.03 | 77 | 1010.5 |
| 20260510184526 | 20 | 153 | 0.0 | 1.6 | 0.00 | 0.28 | 0.00 | 71 | 1010.3 |
| 20260510183025 | 20 | 74 | 0.0 | 4.8 | 0.00 | 0.28 | 0.00 | 70 | 1010.3 |
| 20260510181526 | 20 | 177 | 0.0 | 3.2 | 0.00 | 0.28 | 0.00 | 69 | 1010.3 |
| 20260510180024 | 19 | 41 | 0.0 | 1.6 | 0.00 | 0.28 | 0.00 | 71 | 1010.4 |
| 20260510174524 | 20 | 75 | 0.0 | 1.6 | 0.00 | 0.38 | 0.00 | 70 | 1010.5 |
| 20260510173023 | 21 | 215 | 0.0 | 3.2 | 0.00 | 0.38 | 0.00 | 68 | 1010.4 |
| 20260510171527 | 21 | 74 | 0.0 | 3.2 | 0.00 | 0.38 | 0.00 | 66 | 1010.4 |
| 20260510170019 | 21 | 208 | 0.0 | 3.2 | 0.00 | 0.38 | 0.00 | 67 | 1010.7 |
| 20260510164517 | 21 | 45 | 0.0 | 3.2 | 0.00 | 0.43 | 0.00 | 70 | 1011.0 |
| 20260510163016 | 20 | 195 | 0.0 | 3.2 | 0.00 | 0.43 | 0.00 | 70 | 1011.2 |
| 20260510161512 | 20 | 174 | 0.0 | 3.2 | 0.00 | 0.43 | 0.00 | 72 | 1011.3 |
| 20260510160013 | 19 | 212 | 0.0 | 3.2 | 0.00 | 0.48 | 0.00 | 72 | 1011.4 |
| 20260510154509 | 18 | 160 | 0.0 | 3.2 | 0.00 | 0.48 | 0.00 | 75 | 1011.6 |
| 20260510153002 | 17 | 115 | 0.0 | 4.8 | 0.00 | 0.48 | 0.00 | 79 | 1011.7 |
| 20260510151558 | 16 | 155 | 0.0 | 3.2 | 0.00 | 0.48 | 0.00 | 82 | 1012.0 |
| 20260510150056 | 16 | 108 | 0.0 | 3.2 | 0.00 | 0.48 | 0.00 | 85 | 1011.9 |
| 20260510144602 | 15 | 147 | 0.0 | 1.6 | 0.00 | 0.53 | 0.00 | 84 | 1011.9 |
| 20260510143048 | 15 | 137 | 0.0 | 3.2 | 0.00 | 0.53 | 0.00 | 88 | 1011.9 |
| 20260510141545 | 14 | 97 | 0.0 | 1.6 | 0.00 | 0.53 | 0.00 | 89 | 1012.0 |
| 20260510140044 | 13 | 134 | 0.0 | 0.0 | 0.00 | 0.53 | 0.00 | 89 | 1012.0 |
| 20260510134542 | 13 | 118 | 0.0 | 1.6 | 0.00 | 0.58 | 0.00 | 91 | 1012.0 |
| 20260510133036 | 12 | 44 | 0.0 | 1.6 | 0.00 | 0.58 | 0.00 | 94 | 1012.1 |
| 20260510131533 | 12 | 122 | 0.0 | 1.6 | 0.00 | 0.58 | 0.00 | 96 | 1012.0 |
| 20260510130031 | 11 | 126 | 0.0 | 1.6 | 0.00 | 0.58 | 0.00 | 96 | 1012.0 |
| 20260510124530 | 11 | 64 | 0.0 | 1.6 | 0.00 | 0.64 | 0.00 | 96 | 1011.9 |
| 20260510123028 | 11 | 81 | 0.0 | 1.6 | 0.00 | 0.64 | 0.00 | 96 | 1011.9 |
| 20260510121526 | 11 | 22 | 0.0 | 0.0 | 0.00 | 0.64 | 0.00 | 96 | 1011.9 |
| 20260510120025 | 11 | 22 | 0.0 | 0.0 | 0.00 | 0.64 | 0.00 | 97 | 1011.9 |
| 20260510114525 | 11 | 22 | 0.0 | 0.0 | 0.00 | 0.66 | 0.00 | 97 | 1011.9 |
| 20260510113029 | 11 | 149 | 0.0 | 0.0 | 0.00 | 0.66 | 0.00 | 97 | 1011.9 |
| 20260510111520 | 11 | 149 | 0.0 | 0.0 | 0.00 | 0.66 | 0.00 | 97 | 1011.8 |
| 20260510110035 | 10 | 149 | 0.0 | 0.0 | 0.00 | 0.66 | 0.00 | 97 | 1011.7 |
| 20260510104516 | 10 | 149 | 0.0 | 0.0 | 0.00 | 0.79 | 0.00 | 97 | 1011.7 |
| 20260510103013 | 10 | 149 | 0.0 | 0.0 | 0.00 | 0.79 | 0.00 | 97 | 1011.3 |
| 20260510101512 | 10 | 150 | 0.0 | 0.0 | 0.00 | 0.79 | 0.00 | 97 | 1011.1 |
| 20260510100011 | 10 | 149 | 0.0 | 0.0 | 0.00 | 0.89 | 0.00 | 97 | 1010.8 |
| 20260510094510 | 10 | 150 | 0.0 | 0.0 | 0.00 | 0.89 | 0.00 | 97 | 1010.3 |
| 20260510093009 | 10 | 149 | 0.0 | 0.0 | 0.00 | 0.89 | 0.00 | 96 | 1010.4 |
| 20260510091508 | 10 | 149 | 0.0 | 1.6 | 0.00 | 0.89 | 0.00 | 96 | 1010.4 |
| 20260510090009 | 10 | 150 | 0.0 | 0.0 | 0.00 | 0.89 | 0.00 | 96 | 1010.4 |
| 20260510084508 | 10 | 150 | 0.0 | 0.0 | 0.00 | 0.89 | 0.00 | 96 | 1010.8 |
| 20260510083007 | 10 | 149 | 0.0 | 0.0 | 0.00 | 0.89 | 0.00 | 96 | 1010.9 |
| 20260510081506 | 10 | 239 | 0.0 | 0.0 | 0.00 | 0.89 | 0.00 | 96 | 1010.9 |
| 20260510080013 | 10 | 239 | 0.0 | 0.0 | 0.00 | 0.89 | 0.00 | 96 | 1011.1 |
| 20260510074505 | 10 | 239 | 0.0 | 1.6 | 0.00 | 0.89 | 0.00 | 96 | 1011.0 |
| 20260510073003 | 10 | 231 | 0.0 | 0.0 | 0.00 | 0.89 | 0.00 | 97 | 1010.8 |
| 20260510071502 | 10 | 229 | 0.0 | 0.0 | 0.00 | 0.89 | 0.00 | 97 | 1010.5 |
| 20260510070114 | 10 | 229 | 0.0 | 1.6 | 0.00 | 0.89 | 0.00 | 97 | 1010.6 |
| 20260510064559 | 10 | 229 | 0.0 | 0.0 | 0.00 | 0.89 | 0.00 | 97 | 1010.7 |
| 20260510063058 | 9 | 231 | 0.0 | 0.0 | 0.00 | 0.89 | 0.00 | 96 | 1010.6 |
| 20260510061557 | 9 | 231 | 0.0 | 0.0 | 0.00 | 0.89 | 0.00 | 96 | 1010.5 |
| 20260510060059 | 8 | 231 | 0.0 | 0.0 | 0.00 | 0.89 | 0.00 | 96 | 1010.6 |
| 20260510054555 | 8 | 231 | 0.0 | 0.0 | 0.00 | 0.89 | 0.00 | 96 | 1010.3 |
| 20260510053058 | 8 | 231 | 0.0 | 1.6 | 0.00 | 0.89 | 0.00 | 96 | 1010.6 |
| 20260510051604 | 8 | 229 | 0.0 | 0.0 | 0.00 | 0.89 | 0.00 | 96 | 1010.7 |
| 20260510050059 | 9 | 229 | 0.0 | 0.0 | 0.00 | 0.89 | 0.00 | 96 | 1010.5 |
| 20260510044548 | 9 | 229 | 0.0 | 0.0 | 0.00 | 0.89 | 0.00 | 96 | 1010.5 |
| 20260510043047 | 10 | 229 | 0.0 | 0.0 | 0.00 | 0.89 | 0.00 | 96 | 1010.6 |
| 20260510041544 | 10 | 230 | 0.0 | 0.0 | 0.00 | 0.89 | 0.00 | 96 | 1010.6 |
| 20260510040042 | 10 | 229 | 0.0 | 0.0 | 0.00 | 0.89 | 0.00 | 96 | 1010.7 |
| 20260510034541 | 10 | 231 | 0.0 | 0.0 | 0.00 | 0.89 | 0.89 | 96 | 1010.8 |
| 20260510033052 | 10 | 229 | 0.0 | 0.0 | 0.00 | 0.89 | 0.89 | 96 | 1010.8 |
| 20260510031545 | 10 | 229 | 0.0 | 0.0 | 0.00 | 0.89 | 0.89 | 96 | 1010.8 |
| 20260510030041 | 10 | 231 | 0.0 | 0.0 | 0.00 | 0.89 | 0.89 | 96 | 1010.7 |
| 20260510024539 | 10 | 229 | 0.0 | 0.0 | 0.00 | 0.89 | 0.89 | 96 | 1010.7 |
| 20260510023038 | 10 | 231 | 0.0 | 0.0 | 0.00 | 0.89 | 0.89 | 96 | 1010.7 |
| 20260510021629 | 10 | 229 | 0.0 | 0.0 | 0.00 | 0.89 | 0.89 | 96 | 1010.6 |
| 20260510020037 | 10 | 229 | 0.0 | 0.0 | 0.00 | 0.89 | 0.89 | 96 | 1011.2 |
| 20260510014548 | 10 | 229 | 0.0 | 0.0 | 0.00 | 0.89 | 0.89 | 96 | 1011.3 |
| 20260510013035 | 10 | 229 | 0.0 | 0.0 | 0.00 | 0.89 | 0.89 | 96 | 1011.5 |
| 20260510011535 | 10 | 229 | 0.0 | 0.0 | 0.00 | 0.89 | 0.89 | 96 | 1011.1 |
| 20260510010043 | 9 | 229 | 0.0 | 0.0 | 0.00 | 0.89 | 0.89 | 96 | 1010.7 |
| 20260510004534 | 9 | 230 | 0.0 | 0.0 | 0.00 | 0.89 | 0.89 | 96 | 1010.5 |
| 20260510003033 | 9 | 229 | 0.0 | 0.0 | 0.00 | 0.89 | 0.89 | 96 | 1010.5 |
| 20260510001534 | 9 | 229 | 0.0 | 0.0 | 0.00 | 0.89 | 0.89 | 96 | 1010.4 |
| 20260510000032 | 10 | 229 | 0.0 | 0.0 | 0.00 | 0.89 | 0.89 | 96 | 1010.5 |
| 20260509234533 | 9 | 229 | 0.0 | 0.0 | 0.00 | 0.89 | 0.89 | 96 | 1010.4 |
| 20260509233033 | 9 | 229 | 0.0 | 0.0 | 0.00 | 0.89 | 0.89 | 95 | 1010.9 |
| 20260509231529 | 9 | 229 | 0.0 | 0.0 | 0.00 | 0.89 | 0.89 | 95 | 1010.5 |
| 20260509230036 | 9 | 229 | 0.0 | 0.0 | 0.00 | 0.89 | 0.89 | 95 | 1010.4 |
| 20260509224527 | 9 | 229 | 0.0 | 0.0 | 0.03 | 0.89 | 0.89 | 95 | 1010.4 |
| 20260509223026 | 9 | 229 | 0.0 | 0.0 | 0.03 | 0.89 | 0.89 | 95 | 1010.3 |
| 20260509221524 | 9 | 229 | 0.0 | 1.6 | 0.05 | 0.89 | 0.89 | 95 | 1010.4 |
| 20260509220023 | 9 | 229 | 0.0 | 0.0 | 0.08 | 0.89 | 0.89 | 95 | 1010.5 |
| 20260509214522 | 9 | 229 | 0.0 | 0.0 | 0.08 | 0.86 | 0.86 | 95 | 1010.5 |
| 20260509213022 | 9 | 229 | 0.0 | 0.0 | 0.10 | 0.86 | 0.86 | 95 | 1010.5 |
| 20260509211519 | 8 | 229 | 0.0 | 0.0 | 0.10 | 0.84 | 0.84 | 94 | 1010.7 |
| 20260509210018 | 8 | 229 | 0.0 | 0.0 | 0.10 | 0.81 | 0.81 | 94 | 1010.9 |
| 20260509204516 | 9 | 141 | 0.0 | 0.0 | 0.10 | 0.79 | 0.79 | 94 | 1011.1 |
| 20260509203022 | 9 | 141 | 0.0 | 0.0 | 0.10 | 0.76 | 0.76 | 94 | 1011.4 |
| 20260509201516 | 9 | 140 | 0.0 | 0.0 | 0.08 | 0.71 | 0.71 | 94 | 1011.4 |
| 20260509200012 | 9 | 259 | 0.0 | 0.0 | 0.08 | 0.71 | 0.71 | 94 | 1011.7 |
| 20260509194515 | 9 | 260 | 0.0 | 0.0 | 0.05 | 0.69 | 0.69 | 94 | 1011.7 |